Location: Newark
(0.5300°S, 127.4800°E)
Time: 23:45:10
(UTC+00:00)

Vanguard 3 - Pass Details

Date: 20 September 2019
Orbit: 508 x 3262 km, 33.3° (Epoch: 13 October)

Event Time Altitude Azimuth Distance (km) Brightness Sun altitude
Rises 05:13:37 0° 317° (NW) 7,184 12.2 62.5°
Reaches altitude 10° 05:19:45 10° 327° (NNW) 5,995 12.0 60.9°
Maximum altitude 05:34:35 32° 22° (NNE) 3,623 10.7 57.2°
Drops below altitude 10° 05:44:42 10° 81° (E) 4,109 10.5 54.7°
Sets 05:47:55 0° 91° (E) 4,734 10.7 53.9°
